Theta_e
290 291 292 291 291 291 289 290 284 288 288 291 293 292 293 294 294 294 294 295 296 297 299 300 301 303 304 305 308 311 312 314 318 324 328 337 341 340 341 333 324 320 316 313
287 292 292 289 292 292 291 290 288 288 287 294 294 293 292 292 292 292 293 294 296 297 298 299 300 301 303 304 306 310 311 314 319 323 327 336 338 337 330 320 315 311 307 306
284 290 289 285 287 287 287 288 287 282 289 292 290 290 290 290 290 290 291 292 294 295 297 299 301 302 302 303 306 308 308 314 318 323 325 331 335 323 318 313 310 307 304 303
284 287 280 288 291 290 288 288 290 290 290 290 290 290 290 291 290 291 293 294 296 297 299 301 303 302 303 305 306 306 308 314 318 323 326 332 321 316 312 310 305 303 301 300
283 282 287 289 288 286 284 285 290 285 288 288 289 288 289 294 294 293 293 295 296 297 299 302 303 304 303 303 305 306 308 315 321 324 327 329 316 312 308 304 303 302 298 297
285 281 279 287 290 293 291 280 289 289 288 287 287 280 287 292 292 292 296 302 303 302 300 300 301 302 301 302 303 306 310 317 323 327 325 316 311 308 307 303 301 301 297 296
283 282 286 291 292 293 281 285 291 290 288 286 283 285 288 291 294 299 301 301 304 302 304 304 306 305 302 302 303 309 316 318 323 321 315 311 309 306 302 300 298 295 292 293
285 281 279 294 291 284 290 291 291 290 289 287 287 289 291 294 297 298 299 299 300 299 302 304 305 305 303 304 308 313 317 318 314 312 309 308 304 300 296 294 292 292 290 289
286 287 298 297 293 294 295 291 291 289 290 290 289 290 293 294 296 296 298 297 297 298 300 300 301 303 302 314 313 314 314 309 307 306 304 302 298 295 293 292 290 289 289 288
286 293 294 296 295 296 295 293 292 292 291 291 290 292 291 294 294 295 295 295 295 296 295 296 298 300 304 307 308 305 303 302 302 300 299 298 297 294 291 288 289 289 289 289
288 292 293 293 294 294 294 294 292 292 292 291 292 293 292 293 293 294 294 294 293 293 294 294 295 297 301 303 302 300 299 297 296 296 294 293 292 292 290 290 291 291 291 291
287 296 291 291 295 295 292 291 292 291 291 293 293 293 293 292 291 294 292 292 291 291 293 294 295 295 297 301 300 297 295 294 294 293 291 290 289 288 290 291 291 291 291 293
295 297 295 296 297 294 292 292 293 292 292 292 293 294 293 291 290 293 292 292 291 291 292 293 294 294 296 297 297 295 294 293 293 291 291 290 290 289 286 289 290 290 290 290
299 296 294 297 293 293 293 293 294 294 294 293 294 294 292 290 291 292 292 292 293 291 291 292 292 293 296 296 296 295 295 294 294 293 292 291 290 290 290 289 288 288 289 289
297 298 298 298 294 293 294 293 292 292 291 291 294 293 292 288 290 292 293 293 291 290 290 290 290 292 295 296 295 295 295 294 294 293 292 292 293 292 291 290 289 288 289 289
298 299 298 297 292 292 293 292 291 291 292 292 292 291 293 291 292 292 292 292 290 287 289 290 290 292 293 293 292 292 292 291 292 292 292 293 292 291 291 291 291 291 290 289
295 295 297 294 292 292 291 293 292 292 292 293 293 294 292 291 292 291 291 292 291 290 291 291 290 292 293 293 293 292 292 293 292 293 293 293 292 292 292 292 292 292 291 290
299 298 297 295 292 291 292 293 293 293 293 294 294 294 291 290 290 291 291 292 291 290 290 291 292 293 293 293 293 293 293 294 294 293 293 293 293 293 293 292 291 290 289 289
297 296 296 294 293 293 293 293 293 294 295 295 293 292 293 292 293 293 294 293 291 288 290 292 292 293 293 293 294 294 294 294 294 293 293 291 293 293 293 292 291 291 291 291
296 296 296 294 294 294 293 294 295 294 295 295 294 294 294 294 294 293 294 292 292 293 294 293 293 292 292 293 293 295 295 295 295 295 294 294 293 293 292 290 292 292 292 292
296 296 294 294 294 294 295 295 294 294 295 296 294 294 293 293 294 294 292 290 293 294 293 292 292 294 294 294 295 295 295 295 295 295 294 293 293 293 293 293 293 292 293 293
297 296 295 295 294 294 295 296 296 295 295 295 295 295 294 294 293 292 293 292 295 291 293 293 292 289 293 291 295 295 295 295 295 295 294 294 294 293 293 293 293 293 293 294
298 297 296 296 294 295 296 295 295 295 295 295 295 296 295 293 294 294 293 296 295 291 294 292 287 286 287 295 295 295 295 295 295 295 295 295 294 294 294 293 294 294 294 294
298 297 297 298 297 295 294 295 296 296 296 297 297 298 298 297 295 296 296 291 289 291 294 292 289 287 290 296 296 296 296 296 296 296 295 291 295 295 295 295 295 295 295 294
300 299 298 298 297 296 295 296 296 296 296 296 297 297 298 297 295 296 297 295 290 294 294 286 287 288 296 296 296 296 296 296 296 296 296 296 295 295 296 296 296 296 296 296
301 300 299 299 298 298 297 297 295 296 296 295 296 297 296 296 297 298 297 295 297 292 296 296 296 296 296 296 296 296 296 295 296 296 295 296 296 296 296 296 296 297 296 296
299 297 299 298 299 299 298 297 296 295 296 297 295 294 294 295 294 296 293 297 297 297 296 296 295 294 296 296 296 296 296 296 293 296 296 297 297 297 297 297 298 297 297 297
Wind_Speed
18 23 25 27 26 24 21 21 16 27 28 29 27 23 26 26 26 30 30 27 25 24 22 22 21 18 15 16 15 14 12 11 12 15 14 16 16 14 13 14 16 19 20 17
18 22 22 25 23 22 21 17 16 21 29 25 24 23 26 30 29 29 29 26 24 23 22 22 21 19 18 17 17 14 13 12 12 13 14 15 15 14 14 16 18 20 20 21
11 9 18 17 4 3 7 11 15 20 28 24 23 28 30 28 27 27 25 23 21 20 20 20 19 17 17 17 15 13 14 14 14 12 13 15 14 15 18 18 19 20 20 21
8 11 6 3 3 2 14 19 19 20 19 19 24 25 27 25 21 20 21 23 21 18 17 19 19 18 17 16 15 15 15 14 14 11 12 11 18 19 19 17 19 19 20 20
4 6 17 8 4 3 6 28 8 5 19 24 24 24 24 15 22 23 22 21 19 18 18 19 19 18 17 17 16 14 14 14 13 10 13 16 19 20 19 18 17 17 20 23
3 6 7 2 2 8 8 11 4 17 18 23 21 13 18 25 29 30 28 18 15 14 14 15 17 15 14 16 13 13 12 13 10 9 18 21 22 20 17 19 20 16 18 20
9 8 10 3 5 6 6 9 19 16 18 20 14 11 23 28 25 20 18 18 16 14 13 13 13 13 16 17 17 15 12 10 8 14 19 21 19 17 20 18 20 20 23 19
4 5 8 2 1 3 7 16 16 17 18 18 19 23 23 22 20 19 19 17 17 14 11 10 8 5 8 17 24 18 13 10 16 18 15 16 23 18 21 19 20 22 25 17
7 7 9 6 9 8 12 16 13 17 17 18 20 21 21 19 17 17 17 15 13 13 10 10 10 11 11 4 20 23 15 21 20 21 19 20 24 22 18 13 19 18 18 18
1 7 13 11 7 9 13 12 14 14 17 17 19 18 19 16 15 14 14 14 14 13 12 12 12 15 10 18 23 27 26 24 22 23 21 20 16 16 17 13 11 17 17 18
9 15 13 8 6 11 9 14 15 13 13 16 16 15 15 14 15 14 12 12 12 12 11 14 14 16 13 17 25 25 25 24 23 19 21 19 16 14 16 13 8 12 14 17
7 8 6 5 8 7 10 13 12 13 14 13 12 13 12 11 13 12 12 13 11 12 13 14 16 16 15 13 24 24 23 19 19 18 17 18 19 20 30 26 18 19 14 14
11 1 4 8 9 4 10 12 13 11 13 12 12 10 11 10 12 14 12 11 10 12 14 15 17 17 15 14 18 25 24 23 20 21 17 19 19 20 21 19 26 24 25 25
8 2 4 9 3 4 9 10 11 10 9 11 12 9 10 10 11 11 12 11 11 14 15 17 18 18 16 16 20 27 24 31 20 19 18 17 18 19 16 16 16 15 20 21
2 5 8 5 2 6 8 8 10 10 10 9 10 10 10 9 10 11 10 11 11 15 15 18 19 16 16 19 22 26 20 18 20 18 17 20 16 16 16 16 16 15 15 18
4 3 3 5 3 5 8 10 9 9 9 9 10 8 10 9 10 11 13 13 13 14 14 17 19 15 17 22 25 22 21 32 24 17 16 17 16 17 16 16 15 14 13 14
2 3 7 5 4 5 7 7 8 8 9 8 9 9 11 10 11 13 14 14 16 16 15 18 18 15 17 21 24 17 15 15 21 17 16 16 16 16 15 14 14 13 14 11
4 6 6 7 5 5 7 8 7 7 8 9 10 11 14 11 12 13 14 14 16 19 17 16 14 13 17 17 18 15 15 15 15 16 15 15 15 14 14 15 15 14 14 12
10 9 7 9 6 5 6 7 7 8 8 9 12 13 13 12 12 13 12 15 17 17 13 12 17 18 18 16 17 14 15 17 16 15 15 17 15 14 14 15 16 15 14 13
11 9 10 8 6 7 7 8 7 9 9 11 13 10 13 15 14 14 14 18 15 10 12 13 15 14 16 16 15 14 16 17 17 15 15 15 15 15 15 15 15 14 13 12
10 11 9 8 7 8 8 7 8 10 10 12 13 13 15 14 12 12 13 12 10 10 11 13 11 12 12 13 14 15 16 16 16 15 15 15 16 15 14 14 14 13 13 12
8 10 10 8 9 8 6 8 9 11 11 12 12 12 12 12 10 11 10 7 3 10 8 9 10 11 12 15 14 16 16 16 15 14 14 14 14 13 13 13 13 13 12 12
7 9 8 9 9 7 6 9 9 10 11 12 12 10 10 7 7 7 10 9 10 11 11 11 9 10 11 14 12 14 16 16 14 14 13 13 13 13 12 12 12 12 11 11
9 9 8 8 11 7 9 9 9 10 9 11 12 12 10 10 10 8 8 10 12 12 11 10 10 11 13 12 12 13 13 13 13 13 13 12 11 12 12 12 12 11 10 10
10 10 7 8 9 9 11 10 8 8 8 10 10 10 11 9 8 7 8 8 10 10 10 10 11 10 11 11 12 12 12 12 12 12 11 11 12 11 11 11 10 10 9 9
9 7 6 5 7 7 8 8 7 6 5 6 7 8 7 7 7 7 8 8 9 9 8 8 9 9 9 11 12 12 11 11 10 10 11 10 11 10 10 10 10 9 9 9
8 8 8 7 5 7 6 6 6 5 4 5 6 7 7 7 7 7 8 7 7 7 7 8 9 10 9 10 10 10 9 8 8 9 9 10 9 10 10 9 8 8 8 8
Wind_Direction
256 270 275 274 277 281 274 270 271 290 288 298 306 320 308 304 300 300 298 295 291 289 284 282 277 275 274 267 267 266 269 262 264 270 264 242 214 197 183 148 133 126 122 121
270 274 271 274 269 271 273 280 281 284 286 299 320 309 305 307 307 304 301 296 291 285 280 277 272 270 267 266 261 258 269 260 253 262 267 231 206 174 134 128 126 122 120 119
279 309 302 276 228 201 293 274 278 284 296 313 309 311 309 308 303 295 292 287 283 277 275 278 273 270 267 264 261 257 263 255 249 244 253 236 188 129 129 131 127 124 122 123
289 315 264 94 124 292 284 281 283 281 297 303 311 305 300 295 288 292 297 292 285 276 273 271 271 264 261 255 252 257 255 252 246 235 240 211 134 130 131 132 131 128 124 124
279 281 277 235 209 297 325 307 313 290 304 317 313 307 301 332 321 311 302 290 276 271 267 269 266 258 248 248 247 244 245 247 234 227 231 158 134 135 129 125 123 132 127 125
285 279 280 85 171 308 309 274 159 322 317 318 322 316 313 320 313 305 303 310 307 279 262 253 251 244 236 239 233 228 224 228 213 210 139 136 133 134 135 128 126 129 118 112
258 260 267 130 344 314 277 335 323 320 312 309 310 283 288 296 301 304 312 320 325 318 298 269 257 241 227 220 217 216 203 210 194 142 132 131 127 127 119 123 119 120 107 110
249 253 268 123 72 253 296 302 300 310 309 304 305 301 306 311 318 322 328 333 333 322 320 333 326 297 264 219 203 189 187 161 123 120 118 118 113 108 103 119 119 116 111 115
222 254 296 314 272 264 283 300 307 310 307 308 307 308 315 319 324 320 332 341 337 338 343 360 1 355 320 96 154 164 146 121 115 109 108 110 114 111 107 115 111 125 116 118
309 246 269 285 289 279 298 300 311 308 306 311 309 314 321 324 325 336 346 349 348 357 5 17 15 17 22 84 99 109 112 112 109 106 105 105 105 106 105 104 125 116 125 122
253 276 285 275 270 283 297 316 321 309 313 309 312 323 325 326 337 345 352 358 10 11 20 32 32 33 41 97 106 105 104 105 103 99 99 99 90 97 106 88 90 124 122 120
260 274 214 259 282 292 322 325 316 325 320 321 323 329 336 338 338 351 7 16 21 29 44 47 49 46 45 82 103 104 101 101 104 102 99 98 100 91 75 84 73 68 80 109
270 330 233 280 301 334 320 322 332 325 318 333 335 344 0 345 349 358 20 24 32 46 49 55 62 60 55 71 95 99 101 104 102 100 102 103 102 101 95 76 80 85 93 100
272 276 277 291 292 325 326 336 330 314 345 343 334 6 12 2 347 7 23 16 32 51 52 61 63 66 72 83 96 93 95 97 98 100 99 104 102 108 120 115 111 100 85 103
207 221 263 300 163 345 337 338 343 350 356 341 352 20 8 19 353 12 27 32 44 54 54 59 58 63 79 86 88 89 94 96 96 98 101 108 116 112 109 111 108 107 110 90
227 284 285 288 77 359 352 354 353 1 345 3 6 25 24 38 33 32 34 43 59 53 61 68 60 66 83 89 88 85 85 95 100 106 111 108 106 107 111 112 114 114 114 120
267 360 348 54 33 18 6 6 13 4 357 1 39 29 60 28 43 43 51 52 61 66 62 65 67 61 69 76 84 89 97 102 106 103 104 105 108 111 112 112 112 113 111 101
54 70 55 52 38 32 11 29 30 17 14 31 59 58 72 56 55 50 58 56 61 63 54 62 65 68 79 87 94 97 99 100 99 99 101 103 105 107 111 111 107 108 109 101
77 76 65 60 54 43 30 43 49 28 41 59 71 66 70 62 59 63 67 65 70 71 61 65 71 73 78 79 91 96 99 101 100 99 103 108 105 103 103 105 109 115 118 112
84 77 70 76 57 51 52 62 58 58 62 73 78 64 58 63 63 56 59 60 59 70 70 68 72 76 79 79 87 95 98 100 103 103 103 103 104 107 108 109 116 114 114 111
92 78 71 75 65 64 58 69 68 63 69 75 76 66 65 60 50 58 59 68 51 53 66 66 74 83 86 92 93 97 97 100 104 106 106 109 114 114 116 116 116 116 114 112
103 87 78 78 80 80 43 78 75 79 77 78 72 72 79 69 71 61 57 75 40 54 73 77 80 76 93 96 100 100 98 101 104 109 109 111 113 115 116 120 119 118 121 125
114 104 97 86 94 95 76 90 73 86 86 88 78 69 59 57 48 71 85 75 89 77 86 86 75 70 84 92 94 101 104 106 107 108 111 114 116 119 121 122 123 127 127 125
124 111 102 95 105 90 80 78 76 84 93 84 58 54 55 80 65 62 82 80 72 76 92 98 84 77 93 103 106 107 108 110 113 115 113 111 118 122 126 128 123 121 119 117
133 124 120 104 93 87 92 93 87 92 81 62 55 45 45 51 55 69 79 83 74 79 87 75 80 89 103 106 108 112 115 114 114 116 116 118 123 126 126 120 119 122 119 118
134 126 125 112 100 102 109 121 117 101 80 58 45 36 49 44 50 52 67 70 84 90 98 105 103 99 103 108 111 108 104 109 117 117 118 122 120 120 120 123 127 121 121 120
112 123 124 122 117 122 125 134 130 120 96 75 58 43 46 47 54 69 76 78 81 84 88 99 98 99 110 109 108 110 107 114 120 121 123 126 128 129 131 128 118 124 131 128